Wind_Speed
18 19 19 20 20 21 21 20 20 20 20 20 20 21 21 21 21 22 21 21 21 20 21 20 20 20 20 20 20 20 19 19 19 18 18 17 17 16 16 16 15 15 15 14 14 13 13 12 11
20 21 21 22 22 22 21 21 21 22 22 22 22 22 22 22 22 22 22 22 22 22 22 22 22 22 22 22 21 21 21 21 20 20 20 19 19 18 17 18 17 16 16 16 15 14 14 13 13
21 22 23 23 23 23 22 22 22 23 24 24 25 25 24 24 24 24 24 24 23 23 23 24 24 23 23 23 23 23 23 23 22 22 21 21 21 20 20 19 19 18 18 17 16 15 15 15 14
23 23 24 25 24 23 23 23 24 24 25 25 26 26 26 26 26 27 27 27 26 25 25 25 25 25 26 25 25 25 24 24 24 23 23 23 22 22 22 21 21 20 19 19 18 18 18 17 16
24 25 25 25 25 24 24 25 25 26 26 26 27 28 28 28 28 29 29 29 29 28 28 28 27 27 27 28 28 28 27 27 27 26 26 25 24 24 23 23 23 22 22 20 20 20 20 20 18
25 26 26 25 25 25 25 26 27 27 27 28 29 29 30 30 31 31 31 31 31 31 31 31 30 30 30 30 30 30 30 29 29 29 28 28 27 26 25 24 24 24 23 23 22 22 22 22 21
26 26 27 27 26 26 26 27 28 29 30 30 31 31 31 32 32 32 32 32 32 32 33 33 32 32 32 33 33 33 32 32 31 31 30 30 29 28 28 27 26 26 25 25 24 24 23 23 23
26 27 28 28 28 27 28 29 30 31 31 32 33 33 33 33 33 33 33 34 34 34 34 35 35 34 34 35 35 35 35 35 34 34 32 32 31 31 30 29 29 28 28 27 27 27 26 25 24
27 28 28 28 29 29 29 30 31 32 32 33 34 34 34 34 34 34 34 35 35 35 35 36 36 37 36 36 37 37 37 37 37 36 35 34 34 33 33 32 31 31 30 30 29 28 28 27 27
28 29 29 30 30 31 30 31 32 32 32 33 34 35 35 35 35 35 35 36 37 36 36 37 37 37 38 38 38 38 38 38 38 38 38 37 36 35 35 35 34 33 33 32 32 31 30 29 28
28 29 29 31 31 32 32 32 32 33 34 34 35 35 35 35 35 36 36 37 37 38 38 38 38 38 39 40 40 40 40 40 40 40 40 39 37 37 36 36 36 36 35 35 34 34 32 31 30
29 29 30 31 31 32 32 32 32 33 34 36 36 35 35 35 36 37 37 37 37 38 39 39 40 39 40 40 40 41 41 42 41 41 41 41 40 39 38 38 38 38 38 37 36 36 35 34 32
30 30 31 32 32 32 32 32 33 33 35 36 36 36 35 35 36 37 38 39 39 39 39 40 40 41 40 40 41 42 42 43 43 43 43 43 42 41 41 41 40 39 39 39 39 37 37 36 34
31 31 32 32 32 32 33 32 33 32 34 35 35 35 36 36 36 37 39 39 40 40 40 41 41 42 42 42 42 43 44 44 45 45 45 45 45 43 42 42 41 41 41 40 40 39 38 37 36
32 33 33 33 33 33 34 33 32 33 34 34 35 35 35 36 36 37 38 39 40 41 41 42 42 43 43 43 44 44 44 45 45 46 47 47 46 45 44 43 42 42 42 41 41 41 40 39 39
33 34 33 33 34 34 35 33 32 33 33 34 34 35 35 35 36 37 38 39 40 41 41 42 42 44 44 44 45 45 45 45 46 47 48 48 48 48 47 46 44 44 43 43 43 43 42 41 41
33 33 33 33 34 34 35 33 32 33 33 34 34 35 35 35 36 37 38 39 40 41 42 42 43 44 45 45 46 46 47 47 47 47 49 49 49 50 49 48 47 46 45 45 44 44 44 43 43
32 33 33 33 34 35 35 34 33 34 34 34 35 36 36 36 36 37 37 39 39 41 42 43 44 45 45 46 46 47 47 48 48 49 49 49 49 50 51 50 49 48 47 46 46 45 44 44 43
32 33 33 33 33 35 35 35 34 34 34 34 35 36 37 37 36 37 37 38 39 40 41 41 43 44 45 46 46 47 48 49 49 50 50 49 49 49 50 51 50 49 49 49 47 47 45 45 45
33 34 33 34 34 35 35 34 34 34 34 34 35 36 37 37 37 37 38 38 38 39 40 41 41 43 44 45 46 47 48 49 49 50 51 50 50 50 51 51 50 50 50 50 49 48 47 46 46
35 35 35 35 35 36 36 35 33 34 34 35 36 37 37 38 38 38 38 38 38 39 40 41 41 42 44 45 45 46 47 48 48 48 49 50 50 50 51 52 51 51 51 50 49 49 48 48 48
36 36 36 36 36 36 36 37 33 33 34 34 35 36 37 38 38 38 38 37 37 38 39 40 40 41 43 44 45 46 46 48 48 49 49 50 50 49 50 51 52 52 51 50 50 50 49 49 49
36 36 37 37 37 37 36 38 34 33 33 33 34 35 36 37 37 37 37 37 37 38 39 40 41 42 43 43 45 45 45 46 48 48 50 50 50 50 50 51 52 51 51 51 50 51 50 50 49
37 37 37 38 37 38 36 37 36 34 33 33 33 34 35 36 36 37 38 38 38 39 40 40 41 42 42 43 43 43 44 45 46 47 48 49 50 50 50 51 52 52 51 51 50 51 52 52 51
37 37 38 38 38 37 36 37 36 35 33 33 33 33 34 34 35 36 37 37 38 39 39 39 40 41 41 42 42 42 43 44 45 45 46 48 49 50 50 50 52 52 51 50 50 51 51 51 52
37 37 38 39 39 38 37 37 35 34 34 33 33 34 33 33 34 35 36 37 38 38 38 38 39 40 40 41 41 40 41 42 44 45 46 47 48 49 49 50 51 52 52 51 51 52 51 52 52
37 37 37 38 39 40 38 37 35 33 33 33 32 33 33 33 34 35 36 37 37 38 38 38 38 39 39 40 40 40 41 41 43 44 45 46 47 48 48 49 51 51 52 51 52 52 52 53 53
36 37 36 37 38 39 38 36 35 33 32 33 33 33 33 33 33 34 35 36 37 38 38 38 38 39 39 39 39 39 40 41 42 43 44 46 46 47 47 48 50 50 51 51 52 52 53 53 53
36 35 36 37 38 38 39 36 35 34 33 34 34 33 33 34 34 35 35 35 36 38 39 39 38 38 38 39 39 38 39 40 41 42 43 45 45 46 47 48 49 49 50 51 52 53 54 53 54
35 35 35 36 37 38 39 37 35 35 34 34 34 33 33 34 34 35 35 35 36 37 37 38 38 37 37 37 38 38 38 39 40 40 42 43 44 45 46 47 48 49 49 51 52 53 54 54 53
Wind_Direction
269 268 269 270 269 268 267 267 266 264 265 264 262 261 258 258 257 257 256 254 253 252 251 250 249 249 248 245 245 246 247 248 247 246 246 245 244 243 244 242 242 241 241 242 243 240 238 235 232
269 269 269 269 269 270 270 269 268 267 266 265 264 263 261 259 260 259 258 256 254 252 253 252 252 251 250 247 246 246 246 246 246 246 246 246 246 246 246 244 243 244 244 244 244 241 240 237 233
269 270 269 269 269 269 269 268 268 268 266 266 265 264 264 262 261 260 258 258 256 254 252 253 253 253 251 248 247 247 246 246 247 248 247 246 247 247 248 248 246 246 246 246 244 241 238 237 236
271 270 270 269 269 270 269 269 268 267 267 266 265 264 265 264 262 261 259 258 257 256 255 254 254 252 251 249 247 247 247 246 248 249 248 247 247 247 248 249 248 247 247 246 244 242 239 238 238
273 273 272 271 271 270 270 269 269 269 268 267 266 266 265 263 262 261 259 258 258 257 256 255 254 254 252 251 249 247 247 247 249 250 249 247 248 248 247 248 248 247 246 246 246 245 243 240 239
275 274 273 274 273 272 270 270 270 269 268 268 267 266 265 264 262 261 259 259 258 257 256 255 254 254 254 252 250 248 247 248 248 249 249 247 247 247 247 247 247 246 245 245 245 245 246 243 241
275 274 274 274 273 272 271 270 269 269 268 267 267 267 266 264 263 261 260 258 258 258 257 255 255 253 253 252 251 250 248 248 248 248 249 248 247 247 247 247 248 246 246 247 246 246 246 245 243
276 274 274 275 274 272 272 271 269 269 268 268 267 267 265 265 264 262 260 259 258 257 257 256 256 254 253 253 252 251 250 249 248 248 248 248 247 247 247 247 247 247 246 247 247 246 246 246 246
278 275 276 276 276 274 273 271 270 269 269 268 268 267 266 265 264 263 261 259 258 258 258 258 257 256 255 254 253 252 251 249 249 248 248 248 247 247 248 247 247 247 247 246 246 246 247 248 247
280 278 278 278 277 276 275 273 271 270 269 268 268 267 267 265 264 263 262 260 259 258 258 257 256 256 255 254 253 252 251 249 248 248 248 247 247 247 247 247 247 247 247 246 245 246 247 248 248
281 280 280 279 278 277 275 274 272 270 270 269 269 269 267 266 265 263 261 261 260 258 258 258 257 256 255 255 254 252 251 250 249 248 248 247 246 246 246 246 246 247 247 246 245 245 247 248 248
282 282 281 280 279 277 276 274 273 272 271 270 270 268 267 266 265 263 262 261 260 259 259 258 257 256 256 255 254 253 252 250 249 249 249 248 246 246 247 246 246 246 247 246 245 245 246 246 247
284 283 283 281 279 278 277 276 275 274 272 270 268 267 267 266 265 264 263 261 260 260 259 259 258 256 256 255 254 254 253 252 250 250 249 249 247 247 247 246 246 247 247 246 246 245 246 246 246
284 284 283 281 280 279 278 277 277 276 273 270 269 268 268 267 265 265 264 262 261 260 260 259 258 257 257 257 256 255 254 253 252 251 250 250 249 249 248 247 247 247 247 246 246 245 245 246 245
283 282 282 282 280 279 279 278 279 276 274 272 270 269 269 268 267 266 265 264 262 261 260 260 259 258 257 258 257 256 255 254 253 252 251 250 250 249 247 247 247 247 246 246 245 245 244 245 246
284 283 283 282 281 280 280 280 279 277 275 273 272 270 269 268 267 266 265 264 263 262 261 260 260 259 258 258 258 257 256 254 253 252 251 250 250 249 247 247 246 247 246 246 245 244 244 244 245
285 284 283 282 281 281 280 280 279 277 275 274 272 270 269 269 268 267 266 266 265 264 262 261 260 260 260 259 258 257 256 255 253 253 251 251 251 250 248 246 246 246 246 246 244 244 243 244 244
286 285 284 284 283 281 280 280 278 277 276 274 272 271 270 269 269 268 268 268 267 266 264 263 261 261 260 260 258 257 256 255 254 253 251 251 251 250 248 246 246 245 245 245 244 243 243 243 244
287 287 287 286 285 283 282 280 279 277 276 274 272 271 270 270 270 270 269 269 268 267 266 264 263 262 261 260 259 258 257 256 254 253 251 250 250 250 248 247 245 244 244 244 244 244 243 243 244
287 288 288 286 286 284 282 280 279 277 276 274 272 271 271 271 271 272 271 270 269 268 267 266 265 263 261 261 260 259 258 256 254 252 252 250 250 249 247 246 245 244 243 242 242 243 243 243 244
287 287 288 287 286 286 285 282 281 278 276 275 274 272 271 272 272 272 272 271 269 268 268 266 264 264 263 262 262 260 258 256 255 253 252 251 249 248 246 246 245 244 242 241 241 242 242 242 243
286 287 287 287 287 287 287 285 282 280 279 278 277 275 272 272 273 272 272 271 269 268 268 266 265 264 264 263 262 261 259 257 254 252 251 250 249 248 247 246 245 243 241 240 241 241 241 242 243
286 287 287 286 286 286 287 286 285 282 280 279 278 277 274 273 272 271 270 271 271 270 268 266 265 264 265 264 263 262 259 258 256 253 251 249 248 248 247 246 245 242 241 240 240 241 241 241 242
285 286 285 285 286 286 287 287 286 284 282 281 280 278 276 274 272 271 270 271 272 272 271 268 266 265 265 265 263 261 259 258 256 254 252 248 247 247 247 246 245 243 241 240 241 242 241 241 242
284 285 285 285 285 286 288 287 287 286 284 284 282 280 277 274 273 271 271 273 274 274 273 271 268 266 266 264 264 261 260 258 256 254 251 249 247 247 246 245 244 242 240 241 242 242 241 241 242
286 285 285 286 286 287 287 286 287 286 285 285 283 282 279 275 273 272 273 275 275 275 273 272 270 268 266 264 264 262 260 258 256 254 252 250 248 248 246 245 244 242 240 240 241 242 242 242 242
287 285 284 285 286 286 287 288 287 287 286 284 283 282 281 277 274 274 275 276 276 275 273 273 272 268 266 264 262 262 261 259 256 254 252 250 249 248 247 245 243 241 240 239 241 242 242 243 243
285 285 284 284 286 287 286 288 289 286 284 283 283 282 280 278 276 276 277 277 277 276 275 274 273 269 266 264 262 262 262 259 257 255 252 251 250 249 247 245 242 240 240 240 242 243 242 242 243
285 284 283 283 284 285 287 287 289 287 285 284 283 282 280 278 277 278 279 279 278 277 276 275 273 270 267 265 263 262 261 259 257 255 252 252 250 249 248 245 243 241 241 241 242 244 244 243 243
284 285 282 281 282 282 284 287 287 286 286 285 284 282 281 280 279 279 280 280 279 278 277 276 273 270 268 266 263 261 261 260 258 256 253 251 250 248 247 245 243 241 241 242 243 244 244 244 244
Height
5797 5797 5797 5798 5798 5798 5798 5800 5800 5801 5801 5802 5802 5803 5804 5805 5806 5809 5808 5808 5809 5810 5810 5811 5812 5813 5814 5815 5817 5818 5819 5820 5821 5823 5824 5826 5827 5829 5830 5831 5833 5834 5835 5836 5837 5838 5840 5841 5842
5793 5793 5794 5794 5793 5793 5795 5796 5796 5796 5797 5797 5798 5798 5799 5800 5800 5801 5802 5803 5804 5805 5806 5807 5808 5809 5810 5811 5813 5814 5815 5816 5818 5819 5820 5822 5824 5825 5827 5828 5830 5831 5832 5834 5835 5836 5837 5838 5840
5789 5789 5790 5789 5789 5789 5790 5791 5791 5791 5792 5792 5793 5793 5794 5795 5795 5796 5797 5798 5799 5800 5801 5802 5803 5804 5805 5807 5808 5809 5811 5812 5813 5815 5816 5818 5819 5821 5823 5825 5826 5828 5829 5831 5832 5833 5835 5836 5837
5785 5785 5784 5785 5784 5785 5785 5786 5786 5786 5787 5787 5787 5788 5788 5790 5790 5791 5791 5792 5793 5794 5795 5797 5798 5799 5800 5801 5803 5804 5806 5807 5809 5810 5812 5813 5815 5817 5819 5821 5823 5824 5826 5828 5829 5830 5832 5833 5835
5779 5779 5778 5778 5779 5780 5780 5780 5780 5780 5781 5781 5781 5782 5783 5783 5783 5784 5785 5786 5787 5788 5789 5791 5792 5793 5794 5796 5797 5799 5801 5802 5804 5805 5807 5808 5810 5812 5814 5816 5818 5820 5822 5824 5825 5827 5828 5830 5831
5774 5773 5773 5773 5774 5774 5774 5774 5774 5774 5775 5775 5775 5776 5776 5776 5777 5778 5778 5780 5781 5782 5783 5784 5785 5786 5788 5789 5791 5793 5794 5796 5797 5799 5801 5803 5805 5807 5809 5811 5813 5815 5817 5819 5821 5823 5824 5826 5828
5769 5767 5767 5767 5767 5768 5768 5767 5767 5768 5768 5769 5768 5768 5769 5769 5769 5770 5771 5772 5773 5774 5775 5777 5778 5779 5781 5782 5784 5786 5787 5789 5791 5793 5795 5797 5799 5801 5804 5806 5808 5810 5812 5814 5816 5818 5820 5822 5823
5762 5762 5761 5761 5761 5761 5761 5761 5760 5760 5761 5761 5761 5761 5762 5762 5762 5762 5763 5764 5765 5766 5767 5769 5770 5772 5773 5774 5776 5778 5780 5782 5784 5786 5788 5790 5793 5795 5798 5800 5802 5805 5807 5809 5811 5813 5815 5817 5819
5756 5756 5755 5755 5754 5755 5754 5753 5753 5753 5753 5753 5753 5753 5754 5753 5754 5754 5755 5756 5757 5758 5759 5760 5762 5763 5764 5766 5768 5769 5771 5774 5776 5778 5780 5783 5785 5788 5791 5793 5796 5798 5801 5803 5805 5807 5809 5811 5814
5749 5749 5749 5748 5747 5746 5746 5745 5745 5745 5745 5745 5745 5745 5745 5745 5745 5746 5746 5747 5748 5749 5750 5751 5753 5754 5755 5757 5759 5760 5763 5765 5767 5770 5772 5774 5777 5780 5783 5786 5789 5791 5794 5796 5799 5801 5803 5805 5808
5742 5742 5741 5739 5738 5738 5737 5737 5737 5737 5737 5737 5736 5736 5736 5736 5736 5737 5737 5738 5739 5740 5741 5742 5743 5744 5746 5747 5749 5751 5753 5755 5758 5761 5763 5766 5768 5772 5775 5778 5781 5784 5786 5789 5792 5794 5797 5799 5802
5736 5735 5733 5732 5730 5730 5729 5729 5729 5729 5729 5727 5727 5726 5727 5727 5727 5728 5728 5729 5730 5730 5731 5732 5733 5734 5736 5737 5739 5741 5743 5745 5748 5751 5754 5756 5759 5762 5766 5769 5772 5775 5778 5781 5784 5787 5789 5792 5795
5729 5728 5726 5724 5723 5722 5721 5721 5720 5720 5718 5717 5717 5717 5717 5717 5717 5718 5718 5719 5720 5720 5721 5722 5723 5724 5726 5727 5728 5730 5733 5735 5738 5741 5744 5746 5749 5753 5756 5759 5763 5766 5769 5772 5775 5779 5782 5784 5787
5721 5720 5718 5716 5715 5714 5713 5712 5712 5712 5709 5708 5707 5707 5707 5707 5707 5708 5708 5708 5709 5710 5711 5711 5712 5713 5715 5716 5718 5720 5722 5724 5727 5730 5733 5736 5739 5742 5745 5749 5753 5756 5760 5763 5766 5770 5773 5776 5780
5713 5712 5710 5708 5706 5705 5704 5704 5704 5702 5700 5699 5698 5698 5697 5697 5697 5697 5697 5698 5698 5699 5700 5700 5701 5702 5704 5705 5707 5709 5711 5713 5716 5719 5721 5725 5728 5731 5735 5738 5742 5746 5750 5753 5757 5760 5764 5768 5771
5704 5703 5702 5700 5698 5696 5697 5697 5696 5692 5691 5690 5689 5688 5687 5687 5687 5687 5687 5687 5687 5688 5688 5689 5690 5691 5692 5694 5695 5697 5699 5701 5704 5706 5709 5713 5716 5719 5723 5727 5732 5735 5739 5743 5747 5750 5754 5758 5762
5696 5694 5693 5692 5689 5687 5687 5687 5687 5683 5682 5681 5680 5679 5678 5678 5677 5676 5676 5676 5676 5676 5677 5678 5678 5679 5680 5681 5683 5685 5686 5689 5691 5693 5696 5700 5704 5707 5711 5716 5720 5724 5728 5732 5736 5740 5744 5748 5752
5688 5685 5684 5683 5681 5679 5678 5678 5677 5674 5673 5672 5670 5669 5669 5668 5667 5666 5666 5666 5665 5665 5665 5666 5666 5666 5667 5668 5670 5672 5674 5676 5678 5681 5683 5687 5690 5694 5699 5703 5708 5712 5716 5721 5725 5730 5733 5738 5742
5680 5677 5676 5674 5671 5670 5669 5668 5668 5665 5663 5662 5661 5660 5659 5659 5658 5656 5656 5655 5655 5654 5654 5654 5654 5654 5654 5656 5657 5659 5661 5663 5665 5668 5671 5674 5678 5681 5686 5690 5695 5700 5705 5709 5714 5719 5723 5727 5731
5671 5669 5668 5666 5663 5660 5659 5659 5658 5655 5654 5653 5652 5651 5650 5649 5648 5647 5646 5645 5644 5643 5643 5643 5642 5642 5642 5643 5644 5646 5647 5649 5652 5654 5657 5661 5665 5668 5673 5677 5682 5687 5692 5697 5703 5708 5712 5716 5720
5663 5661 5659 5657 5654 5651 5649 5649 5648 5646 5645 5643 5642 5641 5640 5638 5638 5637 5636 5635 5634 5633 5632 5631 5631 5631 5631 5631 5632 5633 5634 5636 5639 5641 5644 5648 5652 5655 5660 5664 5670 5675 5680 5685 5691 5696 5701 5705 5709
5655 5653 5650 5647 5644 5642 5640 5637 5640 5637 5636 5634 5633 5631 5630 5629 5627 5626 5625 5624 5622 5621 5620 5620 5619 5619 5618 5618 5619 5619 5621 5623 5625 5627 5630 5634 5638 5642 5647 5651 5656 5662 5667 5673 5679 5684 5689 5694 5698
5646 5643 5641 5638 5635 5632 5630 5627 5630 5628 5626 5625 5623 5622 5620 5619 5617 5616 5614 5613 5611 5610 5609 5608 5607 5606 5606 5605 5605 5606 5607 5609 5611 5613 5617 5621 5625 5629 5634 5638 5643 5649 5655 5661 5666 5672 5677 5682 5687
5636 5634 5631 5628 5625 5623 5622 5619 5618 5618 5617 5616 5614 5612 5610 5608 5607 5606 5604 5602 5601 5599 5597 5596 5595 5594 5593 5593 5592 5593 5594 5595 5597 5600 5603 5608 5612 5616 5620 5625 5630 5636 5642 5648 5654 5659 5664 5669 5675
5626 5624 5620 5617 5615 5614 5613 5609 5610 5609 5607 5606 5604 5602 5600 5598 5597 5595 5594 5592 5590 5588 5585 5584 5583 5582 5581 5580 5580 5580 5581 5582 5585 5587 5590 5594 5599 5602 5607 5612 5617 5623 5629 5635 5641 5646 5651 5657 5662
5616 5614 5611 5607 5605 5604 5603 5600 5602 5600 5598 5596 5594 5592 5590 5588 5587 5585 5583 5581 5579 5576 5574 5572 5571 5570 5569 5569 5568 5568 5569 5570 5572 5575 5578 5582 5586 5590 5594 5599 5604 5610 5616 5622 5628 5633 5639 5644 5649
5606 5604 5602 5599 5595 5593 5593 5592 5592 5590 5588 5586 5585 5583 5580 5579 5577 5575 5573 5571 5568 5566 5564 5562 5560 5559 5558 5557 5557 5557 5557 5558 5560 5562 5566 5569 5573 5577 5581 5586 5591 5597 5602 5609 5615 5620 5625 5631 5636
5597 5594 5592 5588 5585 5583 5583 5583 5582 5581 5579 5578 5576 5573 5571 5569 5568 5566 5563 5561 5558 5555 5553 5551 5549 5548 5547 5546 5546 5546 5546 5547 5548 5551 5554 5558 5561 5565 5569 5574 5579 5584 5590 5596 5601 5607 5612 5617 5623
5588 5585 5582 5579 5577 5574 5572 5576 5574 5571 5569 5567 5565 5563 5561 5560 5558 5556 5554 5551 5548 5545 5543 5541 5539 5538 5537 5536 5536 5536 5536 5536 5538 5540 5543 5546 5549 5553 5557 5561 5567 5572 5577 5583 5589 5594 5599 5604 5609
5577 5575 5573 5571 5569 5566 5563 5567 5564 5562 5559 5557 5556 5554 5552 5550 5548 5546 5544 5541 5538 5536 5533 5531 5529 5528 5527 5526 5526 5526 5526 5526 5528 5529 5532 5535 5538 5542 5545 5549 5554 5560 5565 5570 5576 5581 5586 5591 5596